[[{"header":{"parameterUnit":"m.s-1","parameterCategory":1,"la1":30.2991,"la2":30.254,"lo1":-89.0895,"lo2":-89.0444,"dy":0.0017,"dx":0.0017,"nx":28,"ny":28,"refTime":"2023-09-23T09:00:00:Z","depth":0,"parameterNumber":2,"parameterNumberName":"U-component_of_WINDS"},"data":[0,0,0,0,0,0,0,0,0,0,0,0,0,0,0,0,0,0,0,0,0,0,0,0,0,0,0,0,0,0,0,0,0,0,0,0,0,0,0,0,0,0,0,0,0,0,0,0,0,0,0,0,0,0,0,0,0,0,-1.1755,-1.1755,0,-1.1745,-1.1745,-1.1745,-1.1707,-1.1707,-1.1706,-1.1705,-1.1696,-1.1696,-1.1697,0,0,0,0,0,0,0,0,0,0,0,0,0,-1.1743,-1.1743,-1.1755,-1.1755,-1.1755,-1.1746,-1.1745,-1.1745,-1.1708,-1.1707,-1.1706,-1.1705,-1.1696,-1.1696,-1.1697,0,0,0,0,0,0,0,0,0,0,0,0,0,-1.1742,-1.1743,-1.1755,-1.1735,-1.1733,-1.1746,-1.1745,-1.1745,-1.1708,-1.1707,-1.1705,-1.1704,-1.1695,-1.1696,-1.1697,-1.1729,0,0,-1.17,-1.17,0,0,0,0,0,0,0,0,-1.1742,-1.1743,-1.1738,-1.1736,-1.1734,-1.1726,-1.1738,-1.174,-1.1708,-1.1718,-1.1705,-1.1703,-1.1707,-1.1707,-1.1708,-1.1728,-1.1728,-1.17,-1.17,-1.1701,-1.1701,0,0,0,0,0,0,0,-1.1742,-1.1743,-1.1751,-1.1738,-1.1736,-1.1727,-1.1726,-1.1738,-1.172,-1.1717,-1.1714,-1.1713,-1.1706,-1.1707,-1.1708,-1.1728,-1.17,-1.1701,-1.1701,-1.1701,-1.1774,-1.1775,0,0,0,0,0,0,-1.1745,-1.1743,-1.1752,-1.1751,-1.1735,-1.1728,-1.1727,-1.173,-1.172,-1.1717,-1.1714,-1.1711,-1.1706,-1.1707,-1.1707,-1.1744,-1.1701,-1.1702,-1.1702,-1.1773,-1.1774,-1.1776,0,0,0,0,0,0,-1.1745,-1.1746,-1.1752,-1.1746,-1.1746,-1.173,-1.1734,-1.1731,-1.1732,-1.1718,-1.1714,-1.1719,-1.1705,-1.1706,-1.1724,-1.1743,-1.1702,-1.1703,-1.1771,-1.1773,-1.1775,-1.1817,0,0,0,0,0,0,-1.1745,-1.1746,-1.1758,-1.1747,-1.1747,-1.1768,-1.1735,-1.1731,-1.1734,-1.173,-1.1721,-1.1719,-1.1704,-1.1723,-1.1725,-1.1743,-1.1703,-1.1769,-1.1772,-1.1774,-1.1813,-1.182,-1.1825,0,0,0,0,0,-1.1745,-1.177,-1.1758,-1.176,-1.1761,-1.177,-1.177,-1.1752,-1.1735,-1.1747,-1.1738,-1.1719,-1.174,-1.1725,-1.1727,-1.1746,-1.1768,-1.1771,-1.1774,-1.1811,-1.1819,-1.1825,0,0,0,0,0,0,-1.1783,-1.1768,-1.1755,-1.1778,-1.1775,-1.1763,-1.1777,-1.1761,-1.1764,-1.176,-1.1739,-1.1738,-1.1759,-1.1754,-1.1737,-1.1776,-1.1751,-1.1755,-1.1778,-1.1786,-1.1791,-1.1792,-1.1704,0,0,0,0,0,-1.1794,-1.1802,-1.1789,-1.181,-1.1809,-1.1794,-1.1797,-1.1784,-1.1781,-1.178,-1.1772,-1.177,-1.1776,-1.1781,-1.1786,-1.1813,-1.1811,-1.1827,-1.1833,-1.1838,-1.1841,-1.1856,-1.1863,-1.1786,-1.1786,-1.1786,0,0,-1.1817,-1.181,-1.1816,-1.1818,-1.1814,-1.1824,-1.1793,-1.1804,-1.1811,-1.1781,-1.1797,-1.1792,-1.1788,-1.1811,-1.1821,-1.1808,-1.1862,-1.1842,-1.1846,-1.1847,-1.186,-1.1868,-1.1874,-1.1788,-1.1788,-1.1788,0,0,-1.1864,-1.1859,-1.1877,-1.1874,-1.1869,-1.1859,-1.1863,-1.1854,-1.1849,-1.1865,-1.1843,-1.1852,-1.1863,-1.1861,-1.1862,-1.191,-1.1893,-1.1912,-1.1943,-1.1958,-1.1964,-1.1969,-1.1987,-1.1993,-1.1916,-1.1916,-1.1916,0,-1.1893,-1.1906,-1.1888,-1.19,-1.1902,-1.1876,-1.1893,-1.1892,-1.1889,-1.1891,-1.1877,-1.1891,-1.1887,-1.1909,-1.1921,-1.1922,-1.1927,-1.1913,-1.1964,-1.197,-1.1974,-1.1991,-1.1997,-1.1918,-1.1918,-1.1917,-1.1917,0,-1.1943,-1.1952,-1.1967,-1.1965,-1.1968,-1.1983,-1.1968,-1.1973,-1.1961,-1.1952,-1.1969,-1.1964,-1.1967,-1.1972,-1.1959,-1.1993,-1.1985,-1.1968,-1.1942,-1.1984,-1.1999,-1.2005,-1.1921,-1.1921,-1.192,-1.1919,0,0,-1.2013,-1.2001,-1.2007,-1.2006,-1.1999,-1.2006,-1.2021,-1.2025,-1.203,-1.203,-1.2042,-1.2052,-1.2037,-1.2038,-1.2025,-1.2038,-1.2077,-1.2019,-1.2019,-1.2031,-1.2114,-1.2127,-1.2135,-1.2066,-1.2067,-1.2068,-1.2115,0,-1.2057,-1.2081,-1.2065,-1.2092,-1.2101,-1.2077,-1.2089,-1.2087,-1.208,-1.2087,-1.2079,-1.2087,-1.2065,-1.2066,-1.2078,-1.207,-1.2094,-1.2066,-1.2077,-1.2078,-1.2079,-1.2142,-1.2156,-1.22,-1.212,-1.2121,-1.2122,0,-1.2112,-1.2114,-1.2142,-1.2134,-1.2137,-1.2149,-1.2151,-1.2158,-1.2156,-1.215,-1.2151,-1.2136,-1.215,-1.2126,-1.2146,-1.2128,-1.2132,-1.2129,-1.213,-1.213,-1.2102,-1.2145,-1.2214,-1.2221,-1.2131,-1.213,-1.213,0,-1.2161,-1.2171,-1.2188,-1.2188,-1.218,-1.2189,-1.2186,-1.2182,-1.2186,-1.2188,-1.219,-1.2194,-1.2197,-1.2201,-1.2187,-1.217,-1.221,-1.2183,-1.2205,-1.2206,-1.2214,-1.2214,-1.2285,-1.2217,-1.2217,-1.2217,-1.2217,0,-1.2213,-1.2231,-1.221,-1.2221,-1.2241,-1.2223,-1.2243,-1.2237,-1.2235,-1.2244,-1.2224,-1.2234,-1.2216,-1.2224,-1.2214,-1.2232,-1.2233,-1.2229,-1.2226,-1.2231,-1.2232,-1.2233,-1.223,-1.2219,-1.2218,-1.2218,-1.2218,0,-1.227,-1.2257,-1.2275,-1.2266,-1.2264,-1.2279,-1.2271,-1.2281,-1.2273,-1.2286,-1.2288,-1.2275,-1.2284,-1.2271,-1.2278,-1.2272,-1.2297,-1.229,-1.2298,-1.2296,-1.2318,-1.2317,-1.2393,-1.2402,-1.2328,-1.2329,-1.233,0,-1.2304,-1.2317,-1.2309,-1.2314,-1.2313,-1.2321,-1.2324,-1.2308,-1.2313,-1.2311,-1.2322,-1.2329,-1.2334,-1.2349,-1.2341,-1.2347,-1.2339,-1.2365,-1.234,-1.2344,-1.234,-1.2339,-1.2341,-1.2371,-1.2372,-1.2372,-1.2373,0,-1.2365,-1.2358,-1.2364,-1.2368,-1.2372,-1.2375,-1.2375,-1.2381,-1.2364,-1.237,-1.2379,-1.2382,-1.239,-1.2398,-1.2402,-1.2399,-1.2384,-1.2381,-1.2387,-1.2391,-1.2396,-1.2394,-1.2312,-1.2379,-1.2379,-1.2378,-1.2378,-1.2378,-1.2412,-1.2423,-1.2419,-1.2426,-1.2425,-1.2427,-1.2436,-1.2429,-1.2436,-1.244,-1.2431,-1.2442,-1.244,-1.2444,-1.2443,-1.2452,-1.2441,-1.2448,-1.245,-1.2453,-1.2456,-1.2395,-1.2453,-1.2453,-1.2452,-1.2452,-1.2452,0,-1.2472,-1.2469,-1.2476,-1.2478,-1.2484,-1.2468,-1.2468,-1.2475,-1.2485,-1.2484,-1.2489,-1.25,-1.2507,-1.25,-1.2506,-1.2515,-1.2508,-1.2517,-1.2516,-1.2516,-1.2466,-1.2461,-1.2523,-1.2523,-1.2523,-1.2523,-1.2523,-1.2523,-1.2505,-1.2522,-1.2515,-1.2532,-1.2529,-1.254,-1.2541,-1.2543,-1.2542,-1.2555,-1.2561,-1.2556,-1.2553,-1.2559,-1.2566,-1.2563,-1.2567,-1.2578,-1.2574,-1.2527,-1.252,-1.2513,-1.2508,-1.2579,-1.2579,-1.2623,-1.2624,-1.2624]},{"header":{"parameterUnit":"m.s-1","parameterCategory":1,"la1":30.2991,"la2":30.254,"lo1":-89.0895,"lo2":-89.0444,"dy":0.0017,"dx":0.0017,"nx":28,"ny":28,"refTime":"2023-09-23T09:00:00:Z","depth":0,"parameterNumber":3,"parameterNumberName":"V-component_of_WINDS"},"data":[0,0,0,0,0,0,0,0,0,0,0,0,0,0,0,0,0,0,0,0,0,0,0,0,0,0,0,0,0,0,0,0,0,0,0,0,0,0,0,0,0,0,0,0,0,0,0,0,0,0,0,0,0,0,0,0,0,0,2.9059,2.906,0,2.9074,2.9074,2.9074,2.9071,2.9071,2.907,2.907,2.9083,2.9084,2.9084,0,0,0,0,0,0,0,0,0,0,0,0,0,2.9028,2.9028,2.9059,2.906,2.906,2.9074,2.9074,2.9074,2.9071,2.9071,2.907,2.907,2.9083,2.9084,2.9084,0,0,0,0,0,0,0,0,0,0,0,0,0,2.9042,2.9028,2.9059,2.906,2.906,2.9074,2.9074,2.9074,2.9071,2.9071,2.907,2.907,2.9083,2.9084,2.9084,2.9098,0,0,2.9087,2.9088,0,0,0,0,0,0,0,0,2.9041,2.9043,2.906,2.906,2.906,2.907,2.9067,2.9082,2.9071,2.9067,2.907,2.907,2.9079,2.908,2.9084,2.9099,2.9099,2.9087,2.9088,2.9088,2.9088,0,0,0,0,0,0,0,2.904,2.9042,2.9065,2.906,2.906,2.9059,2.906,2.907,2.9075,2.9067,2.9067,2.9069,2.9079,2.9083,2.9084,2.9099,2.9087,2.9088,2.9089,2.9089,2.9125,2.9126,0,0,0,0,0,0,2.9039,2.9041,2.9065,2.9065,2.9049,2.906,2.9062,2.9067,2.9075,2.9076,2.9069,2.9069,2.9082,2.9083,2.9084,2.91,2.9088,2.9089,2.909,2.9125,2.9125,2.9126,0,0,0,0,0,0,2.9038,2.9041,2.9064,2.9053,2.9056,2.9061,2.9067,2.9068,2.9072,2.9076,2.9077,2.9072,2.9081,2.9083,2.9095,2.9101,2.9089,2.909,2.9124,2.9125,2.9126,2.9132,0,0,0,0,0,0,2.9037,2.9041,2.9046,2.9054,2.9057,2.9074,2.9068,2.9068,2.9073,2.9073,2.9079,2.908,2.9081,2.9093,2.9095,2.9102,2.9091,2.9124,2.9125,2.9125,2.9131,2.9133,2.9134,0,0,0,0,0,2.9036,2.9047,2.9047,2.9049,2.9064,2.9075,2.9077,2.9078,2.9074,2.9079,2.9082,2.908,2.91,2.9094,2.9097,2.9103,2.9123,2.9124,2.9125,2.9131,2.9133,2.9134,0,0,0,0,0,0,2.904,2.9048,2.9048,2.9061,2.9068,2.9074,2.9081,2.908,2.9087,2.9086,2.9087,2.9088,2.91,2.9103,2.9097,2.9117,2.9111,2.9112,2.9114,2.9116,2.9117,2.9116,2.9092,0,0,0,0,0,2.9043,2.9051,2.9058,2.9069,2.9073,2.9076,2.9081,2.9082,2.9088,2.909,2.9094,2.9099,2.9107,2.9112,2.9119,2.9132,2.9133,2.9138,2.9139,2.914,2.9141,2.9148,2.915,2.9129,2.9129,2.9129,0,0,2.9048,2.9053,2.9059,2.907,2.9075,2.9083,2.9078,2.9087,2.9093,2.9091,2.9102,2.9105,2.9112,2.9124,2.9129,2.9127,2.9148,2.9142,2.9143,2.9143,2.9149,2.9151,2.9153,2.913,2.913,2.913,0,0,2.9061,2.9067,2.9077,2.9082,2.9089,2.9092,2.9094,2.9101,2.9103,2.9114,2.9113,2.912,2.9133,2.9137,2.9141,2.9157,2.9154,2.9159,2.9166,2.9173,2.9174,2.9176,2.9181,2.9182,2.916,2.916,2.916,0,2.9066,2.908,2.9082,2.9091,2.9096,2.9095,2.9105,2.911,2.9119,2.9122,2.9119,2.9135,2.9139,2.9152,2.9156,2.916,2.9162,2.9158,2.9174,2.9175,2.9177,2.9181,2.9183,2.9161,2.9161,2.916,2.916,0,2.9085,2.9094,2.9102,2.9111,2.9117,2.9126,2.9129,2.9135,2.9135,2.9138,2.9149,2.9154,2.9162,2.9165,2.9166,2.9178,2.9176,2.9174,2.9168,2.9179,2.9183,2.9185,2.9161,2.9161,2.9161,2.9161,0,0,2.9101,2.9112,2.9114,2.9119,2.9127,2.9134,2.9143,2.9151,2.9156,2.9162,2.917,2.9181,2.9178,2.9183,2.9184,2.9189,2.9201,2.9186,2.9186,2.9188,2.9214,2.9216,2.9218,2.92,2.92,2.92,2.9214,0,2.9115,2.9132,2.9134,2.9149,2.9157,2.9156,2.9164,2.917,2.9173,2.918,2.9182,2.919,2.9187,2.9189,2.9195,2.9198,2.9206,2.9197,2.9206,2.9206,2.9203,2.922,2.9222,2.9234,2.9215,2.9216,2.9216,0,2.9133,2.914,2.9156,2.9163,2.9167,2.9174,2.9182,2.9188,2.9195,2.9196,2.9201,2.9201,2.921,2.9205,2.9217,2.9211,2.9215,2.9217,2.9217,2.9217,2.9211,2.922,2.9238,2.924,2.9219,2.9218,2.9218,0,2.9142,2.9156,2.9167,2.9171,2.9179,2.9184,2.9188,2.9194,2.9199,2.9206,2.9209,2.9216,2.922,2.9226,2.9228,2.9223,2.9239,2.9234,2.924,2.924,2.9243,2.9243,2.9261,2.9247,2.9247,2.9247,2.9247,0,2.9156,2.9166,2.9171,2.9178,2.9188,2.9191,2.9201,2.9204,2.921,2.9217,2.9217,2.9223,2.9226,2.9232,2.9234,2.9243,2.9245,2.9246,2.9246,2.9246,2.9245,2.9247,2.9246,2.9247,2.9247,2.9247,2.9247,0,2.9168,2.9172,2.9184,2.9192,2.9194,2.9201,2.9207,2.9213,2.9216,2.9225,2.9227,2.9231,2.9239,2.9242,2.9251,2.9252,2.9263,2.9263,2.9261,2.9261,2.9267,2.9266,2.9286,2.9289,2.9274,2.9274,2.9274,0,2.9177,2.9184,2.9193,2.9197,2.9202,2.921,2.9215,2.9217,2.9223,2.923,2.9235,2.9243,2.925,2.9262,2.9266,2.9273,2.9272,2.9279,2.9273,2.9273,2.9272,2.9271,2.9271,2.928,2.928,2.928,2.928,0,2.9192,2.9193,2.9201,2.9209,2.9215,2.9222,2.9228,2.9232,2.9236,2.9242,2.925,2.9255,2.9265,2.9272,2.928,2.9283,2.9282,2.9282,2.9284,2.9283,2.9282,2.9282,2.9263,2.9282,2.9282,2.9281,2.9281,2.9281,2.9202,2.9208,2.9215,2.9223,2.9228,2.9234,2.9241,2.9244,2.9252,2.926,2.9261,2.927,2.9276,2.9286,2.9289,2.9296,2.9294,2.9296,2.9297,2.9297,2.9297,2.9281,2.9297,2.9297,2.9297,2.9297,2.9297,0,2.9216,2.922,2.9228,2.9237,2.9244,2.9243,2.925,2.9255,2.9263,2.9269,2.9276,2.9285,2.9292,2.9297,2.9304,2.9308,2.9308,2.931,2.9309,2.931,2.9299,2.9297,2.931,2.931,2.931,2.931,2.931,2.931,2.9224,2.9235,2.9237,2.925,2.9254,2.9264,2.9267,2.9273,2.9277,2.9288,2.9294,2.9297,2.9302,2.931,2.9317,2.9318,2.932,2.9322,2.9323,2.9312,2.9311,2.931,2.9307,2.9323,2.9323,2.9333,2.9333,2.9333]}]]